Flag for Honduras Weather past 2 weeks in San Pedro Sula, Honduras

Now
79 °F

Partly cloudy.


Feels Like: 83 °F
Forecast: 74 / 88 °F
Wind: 3 mph from North

Location: La Mesa San Pedro Sula

Current Time: Mar 6, 2015 at 1:52:15 AM

Latest Report: Mar 6, 2015 at 1:00 AM


Visibility: N/A

Pressure: 29.98 "Hg

Humidity: 94%

Dew point: 77 °F

Location of San Pedro SulaLocation

Historic Weather in San Pedro Sula — Graph

°F

San Pedro Sula temperature yesterday

Maximum temperature yesterday: 93 °F (at 2:00 PM)
Minimum temperature yesterday: 68 °F (at 6:00 AM)
Average temperature yesterday: 81 °F

Past Weeks' High & Low Weather Summary

 TemperatureHumidityPressure
High93 °F (Feb 26, 1:00 PM)100% (Feb 19, 6:00 AM)30.18 "Hg (Feb 19, 6:00 AM)
Low63 °F (Feb 21, 6:00 AM)44% (Feb 26, 2:00 PM)29.74 "Hg (Feb 26, 3:00 PM)
Average78 °F84%29.98 "Hg
* Reported Midnight between Feb 18 and Feb 19 — Midnight between Mar 5 and Mar 6, San Pedro Sula, Weather by CustomWeather, © 2015

Note: Actual official high and low records may vary slightly from our data, if they occured in-between our weather recording intervals... More about our weather records

Advertising

San Pedro Sula weather history for previous 24 hours

 ConditionsComfort  
Time TempWeatherWind HumidityBarometerVisibility
12:00 AM
Fri, Mar 6
79 °FPartly cloudy.5 mph94%30.01 "HgN/A
11:00 PM
Thu, Mar 5
79 °FPartly cloudy.6 mph94%30.01 "HgN/A
10:00 PM79 °FPassing clouds.7 mph89%30.01 "HgN/A
9:00 PM79 °FPassing clouds.9 mph94%30.01 "HgN/A
8:00 PM79 °FPassing clouds.10 mph89%29.98 "HgN/A
7:00 PM79 °FPassing clouds.8 mph84%29.95 "HgN/A
6:00 PM84 °FPassing clouds.14 mph66%29.89 "HgN/A
5:00 PM86 °FPassing clouds.16 mph62%29.89 "HgN/A
4:00 PM88 °FPassing clouds.17 mph62%29.86 "HgN/A
3:00 PM91 °FPassing clouds.5 mph59%29.83 "HgN/A
2:00 PM93 °FPassing clouds.9 mph47%29.86 "HgN/A
1:00 PM91 °FPassing clouds.2 mph46%29.89 "HgN/A
12:00 PM90 °FPassing clouds.5 mph49%29.92 "HgN/A
11:00 AM88 °FPassing clouds.5 mph55%29.95 "HgN/A
9:00 AM81 °FPassing clouds.No wind74%29.95 "HgN/A
8:00 AM75 °FPassing clouds.No wind89%29.95 "HgN/A
7:00 AM70 °FPassing clouds.5 mph100%29.95 "HgN/A
6:00 AM68 °FPassing clouds.3 mph100%29.92 "HgN/A
4:00 AM70 °FPassing clouds.No wind100%29.86 "HgN/A
3:00 AM70 °FPassing clouds.2 mph100%29.86 "HgN/A
2:00 AM72 °FPassing clouds.No wind94%29.86 "HgN/A
Weather by CustomWeather, © 2015

See weather overviewHow to use our weather pages